Weather History for Klawock, AK

Change the Weather History Date:

Thursday, September 19, 2013

  Actual Average Record
Temperature  
Mean Temperature 56 °F -  
Max Temperature 60 °F 56 °F 70 °F (2010)
Min Temperature 52 °F 44 °F 39 °F (2004)
Degree Days  
Heating Degree Days 10    
Growing Degree Days 6 (Base 50)    
Moisture  
Dew Point 53 °F    
Average Humidity 87    
Maximum Humidity 94    
Minimum Humidity 72    
Precipitation  
Precipitation 2.38 in - - ()
Sea Level Pressure  
Sea Level Pressure 29.25 in    
Wind  
Wind Speed 7 mph (ENE)    
Max Wind Speed 13 mph    
Max Gust Speed 23 mph    
Visibility 7 miles    
Events Rain    
Averages and records for this station are not official NWS values.
T = Trace of Precipitation, MM = Missing Value Source: NWS Daily Summary

Daily Weather History Graph

Daily Weather History Graph

Search for Another Location

Airport:

Trip Planner

Search our weather history database for the weather conditions in past years. The results will help you decide how hot, cold, wet, or windy it might be!

Date:

Astronomy

Sep. 19, 2013 Rise Set
Actual Time 6:32 AM AKDT 6:57 PM AKDT
Civil Twilight 5:55 AM AKDT 7:34 PM AKDT
Nautical Twilight 5:11 AM AKDT 8:18 PM AKDT
Astronomical Twilight 4:24 AM AKDT 9:05 PM AKDT
Moon 6:44 PM AKDT (9/19) 7:00 AM AKDT (9/19)
Length of Visible Light 13h 38m
Length of Day
12h 25m
Full, 100% of the Moon is Illuminated
Sep 19
Full
Sep 26
Last Quarter
Oct 4
New
Oct 11
First Quarter
Oct 18
Full

Hourly Weather History & Observations

Time (AKDT) Temp. Dew Point Humidity Pressure Visibility Wind Dir Wind Speed Gust Speed Precip Events Conditions
12:53 AM 54.0 °F 48.9 °F 83% 29.55 in 10.0 mi NE 12.7 mph 23.0 mph 0.01 in   Overcast
1:53 AM 53.1 °F 48.9 °F 86% 29.50 in 8.0 mi ENE 10.4 mph 17.3 mph 0.04 in   Overcast
2:53 AM 52.0 °F 48.9 °F 89% 29.44 in 7.0 mi NE 9.2 mph 20.7 mph 0.07 in   Overcast
3:53 AM 53.1 °F 48.9 °F 86% 29.37 in 4.0 mi NE 12.7 mph 19.6 mph 0.20 in   Overcast
4:53 AM 55.0 °F 48.9 °F 80% 29.32 in 8.0 mi Variable 4.6 mph 16.1 mph 0.13 in   Overcast
5:53 AM 55.0 °F 50.0 °F 83% 29.29 in 8.0 mi Calm Calm - 0.09 in Rain Light Rain
6:53 AM 55.0 °F 51.1 °F 86% 29.29 in 5.0 mi Variable 3.5 mph - 0.11 in Rain Rain
7:53 AM 55.0 °F 53.1 °F 93% 29.28 in 4.0 mi Variable 4.6 mph - 0.16 in Rain Heavy Rain
8:53 AM 57.0 °F 54.0 °F 89% 29.29 in 10.0 mi Variable 6.9 mph - 0.11 in   Overcast
9:31 AM 57.2 °F 55.4 °F 94% 29.29 in 6.0 mi Variable 5.8 mph - 0.03 in Rain Rain
9:39 AM 57.2 °F 55.4 °F 94% 29.29 in 6.0 mi Variable 4.6 mph - 0.04 in Rain Light Rain
9:53 AM 57.9 °F 55.0 °F 90% 29.29 in 5.0 mi Calm Calm - 0.06 in Rain Rain
10:24 AM 57.2 °F 55.4 °F 94% 29.29 in 9.0 mi Calm Calm - 0.04 in Rain Light Rain
10:53 AM 57.9 °F 55.9 °F 93% 29.28 in 5.0 mi Calm Calm - 0.08 in Rain Rain
11:53 AM 59.0 °F 55.9 °F 90% 29.27 in 10.0 mi South 6.9 mph - 0.06 in Rain Light Rain
12:53 PM 57.9 °F 55.9 °F 93% 29.25 in 8.0 mi Variable 4.6 mph - 0.07 in Rain Light Rain
1:53 PM 59.0 °F 54.0 °F 83% 29.23 in 6.0 mi Variable 4.6 mph - 0.09 in Rain Light Rain
2:53 PM 57.0 °F 53.1 °F 87% 29.20 in 5.0 mi Calm Calm - 0.13 in Rain Rain
3:53 PM 55.9 °F 53.1 °F 90% 29.18 in 3.0 mi Calm Calm - 0.19 in Rain Heavy Rain
4:53 PM 55.9 °F 52.0 °F 87% 29.16 in 5.0 mi Variable 3.5 mph - 0.21 in Rain Rain
5:53 PM 57.9 °F 52.0 °F 81% 29.14 in 10.0 mi Variable 4.6 mph - 0.02 in   Overcast
6:53 PM 59.0 °F 50.0 °F 72% 29.13 in 10.0 mi ESE 10.4 mph 21.9 mph N/A   Overcast
7:53 PM 59.0 °F 50.0 °F 72% 29.11 in 10.0 mi Variable 6.9 mph 20.7 mph N/A   Overcast
8:53 PM 57.0 °F 52.0 °F 83% 29.08 in 9.0 mi Variable 3.5 mph - 0.02 in Rain Light Rain
9:53 PM 57.0 °F 53.1 °F 87% 29.06 in 7.0 mi Variable 3.5 mph - 0.12 in Rain Light Rain
10:53 PM 55.9 °F 54.0 °F 93% 29.05 in 6.0 mi Variable 3.5 mph - 0.21 in Rain Light Rain
11:53 PM 57.0 °F 54.0 °F 89% 29.05 in 6.0 mi Variable 3.5 mph - 0.20 in Rain Rain